Content
SEND FEEDBACK

Daily
Averages
Monthly
Summary
United States of America

FORT SANDERS, WYOMING


Home > North America > United States > Wyoming
Elevation: 7220 feet     Latitude: 41 18N     Longitude: 105 34W

WEATHER
 
SELECT A DAY
Number of Records: 197,498;   Date Range: 1/1/95 - 11/23/14
 
SHARE

PRINT THIS DATA

[ ← Previous Day ]
WEATHER ALMANAC - JANUARY 31, 2013
[ Next Day → ]
[ °C ]   °F
Weather ElementAverageHighLow
Temperature27.5 °F34 °F (1:53 pm)21.9 °F (4:53 am)
Dewpoint16.4 °F18 °F (1:53 am)14 °F (7:53 pm)
Humidity63.7 %77 % (2:53 am)48 % (1:53 pm)
Barometer30.04 in30.17 in (7:53 pm)29.90 in (1:53 am)
Wind Speed22 mph36.8 mph (10:53 am)
Wind Gust44.9 mph (10:53 am)
Weather ElementAverage
Visibility10 mi
Wind DirectionW (269 °)

Weather ElementTotal
Precipitation---
Heating Degree Days37.1 (Base 65)
Averaged from 20 records on January 31, 2013
WEATHER CONDITIONS BREAKOUT
WIND DIRECTION BREAKOUT
WEATHER BY HOUR - JANUARY 31, 2013
[ °C ]   °F
Local TimeTemperatureDewpointHumidityBarometerVisibilityWind DirectionWind SpeedGust SpeedPrecipitationEventsConditions
1:53 AM25.0 °F18.0 °F75 %29.90 in10.0 miWest (280°)15.0 mphOvercast
2:53 AM24.1 °F18.0 °F77 %29.92 in10.0 miWNW (290°)11.5 mphOvercast
3:53 AM25.0 °F18.0 °F75 %29.91 in10.0 miWNW (290°)11.5 mphOvercast
4:53 AM21.9 °F15.1 °F75 %29.94 in10.0 miWest (280°)15.0 mphClear
5:53 AM23.0 °F16.0 °F74 %29.97 in10.0 miWNW (300°)21.9 mph33.4 mphClear
6:53 AM24.1 °F18.0 °F77 %30.01 in10.0 miWNW (300°)27.6 mph34.5 mphOvercast
7:53 AM23.0 °F16.0 °F74 %30.03 in10.0 miWNW (290°)24.2 mph0.00 inMostly Cloudy
8:53 AM26.1 °F16.0 °F66 %30.04 in10.0 miWest (280°)24.2 mph31.1 mphOvercast
9:53 AM28.9 °F16.0 °F58 %30.04 in10.0 miWest (280°)29.9 mph40.3 mphPartly Cloudy
10:53 AM30.9 °F17.1 °F57 %30.06 in10.0 miWest (280°)36.8 mph44.9 mphClear
11:53 AM32.0 °F17.1 °F54 %30.07 in10.0 miWest (280°)29.9 mph40.3 mphClear
12:53 PM33.1 °F17.1 °F52 %30.07 in10.0 miWest (280°)29.9 mph36.8 mphScattered Clouds
1:53 PM34.0 °F16.0 °F48 %30.04 in10.0 miWest (270°)27.6 mph39.1 mphPartly Cloudy
2:53 PM34.0 °F17.1 °F50 %30.08 in10.0 miWest (260°)24.2 mph29.9 mphScattered Clouds
3:53 PM30.0 °F15.1 °F54 %30.10 in10.0 miWSW (250°)23.0 mph29.9 mphScattered Clouds
5:53 PM28.0 °F16.0 °F61 %30.12 in10.0 miWSW (250°)15.0 mphPartly Cloudy
6:53 PM28.0 °F15.1 °F58 %30.15 in10.0 miSW (230°)15.0 mphScattered Clouds
7:53 PM26.1 °F14.0 °F60 %30.17 in10.0 miSW (220°)16.1 mph24.2 mphClear
8:53 PM27.0 °F16.0 °F63 %30.13 in10.0 miWSW (240°)23.0 mphClear
11:53 PM26.1 °F16.0 °F66 %30.09 in10.0 miSW (230°)19.6 mph29.9 mphClear
Hourly data recorded from KLAR, located miles away from Fort Sanders, Wyoming







STORIES FROM OUR PARTNERS